This is the latest recevied weather packets stored in our database for station/object DL6MAA-11. If no packets are shown the sender has not sent any weather packets the latest 10 day(s).
| Time | Temp. | Humidity | Pressure | Rain* | Wind** | Luminosity | Snow |
|---|---|---|---|---|---|---|---|
| 1777817827 | 23.33° C | 34% | 1010.4 hPa | 0 mm | - | 195 W/m² | - |
| 1777817515 | 23.89° C | 33% | 1010.3 hPa | 0 mm | - | 200 W/m² | - |
| 1777817222 | 23.89° C | 33% | 1010.3 hPa | 0 mm | - | 218 W/m² | - |
| 1777816921 | 23.89° C | 33% | 1010.3 hPa | 0 mm | - | 216 W/m² | - |
| 1777816632 | 23.89° C | 32% | 1010.4 hPa | 0 mm | - | 232 W/m² | - |
| 1777816336 | 23.89° C | 31% | 1010.4 hPa | 0 mm | - | 237 W/m² | - |
| 1777816022 | 24.44° C | 33% | 1010.4 hPa | 0 mm | - | 251 W/m² | - |
| 1777815729 | 24.44° C | 32% | 1010.4 hPa | 0 mm | - | 243 W/m² | - |
| 1777815419 | 24.44° C | 32% | 1010.4 hPa | 0 mm | - | 281 W/m² | - |
| 1777815124 | 24.44° C | 33% | 1010.4 hPa | 0 mm | - | 285 W/m² | - |
| 1777814820 | 25° C | 31% | 1011.3 hPa | 0 mm | - | 257 W/m² | - |
| 1777814528 | 25.56° C | 32% | 1011.3 hPa | 0 mm | - | 455 W/m² | - |
| 1777814231 | 25.56° C | 33% | 1011.3 hPa | 0 mm | - | 527 W/m² | - |
| 1777813935 | 24.44° C | 32% | 1011.5 hPa | 0 mm | - | 489 W/m² | - |
| 1777813617 | 24.44° C | 33% | 1011.5 hPa | 0 mm | - | 327 W/m² | - |
| 1777813323 | 25° C | 34% | 1011.5 hPa | 0 mm | - | 329 W/m² | - |
| 1777813030 | 25° C | 33% | 1011.7 hPa | 0 mm | - | 302 W/m² | - |
| 1777812732 | 25° C | 34% | 1011.7 hPa | 0 mm | - | 380 W/m² | - |
| 1777812418 | 24.44° C | 32% | 1011.7 hPa | 0 mm | - | 506 W/m² | - |
| 1777812124 | 24.44° C | 34% | 1011 hPa | 0 mm | - | 476 W/m² | - |
| 1777811830 | 24.44° C | 32% | 1011 hPa | 0 mm | - | 497 W/m² | - |
| 1777811518 | 23.89° C | 35% | 1011 hPa | 0 mm | - | 483 W/m² | - |
| 1777811220 | 24.44° C | 35% | 1011 hPa | 0 mm | - | 475 W/m² | - |
| 1777810923 | 24.44° C | 33% | 1011 hPa | 0 mm | - | 478 W/m² | - |
| 1777810629 | 24.44° C | 37% | 1011 hPa | 0 mm | - | 519 W/m² | - |
* Rain since midnight (hover to see other rain measurements)
** Current wind speed in m/s (hover to see current wind gust speed)